Weather History for Puyallup, WA

Change the Weather History Date:

Sunday, March 23, 2014

  Actual Average (KTCM) Record (KTCM)
Temperature  
Mean Temperature 44 °F -  
Max Temperature 53 °F 52 °F 64 °F (2006)
Min Temperature 35 °F 35 °F 24 °F (1965)
Degree Days  
Heating Degree Days 21    
Moisture  
Dew Point 37 °F    
Average Humidity 76    
Maximum Humidity 100    
Minimum Humidity 51    
Precipitation  
Precipitation 0.00 in - - ()
Sea Level Pressure  
Sea Level Pressure 30.29 in    
Wind  
Wind Speed 2 mph (NNW)    
Max Wind Speed 6 mph    
Max Gust Speed -    
Visibility 10 miles    
Events Rain    
Averages and records for this station are not official NWS values.
T = Trace of Precipitation, MM = Missing Value Source: NWS Daily Summary

Daily Weather History Graph

Daily Weather History Graph

Search for Another Location

Airport:

Trip Planner

Search our weather history database for the weather conditions in past years. The results will help you decide how hot, cold, wet, or windy it might be!

Date:

Astronomy

Mar. 23, 2014 Rise Set
Actual Time 7:05 AM PDT 7:26 PM PDT
Civil Twilight 6:35 AM PDT 7:56 PM PDT
Nautical Twilight 5:59 AM PDT 8:32 PM PDT
Astronomical Twilight 5:22 AM PDT 9:10 PM PDT
Moon 2:06 AM PDT (3/23) 11:33 AM PDT (3/23)
Length of Visible Light 13h 21m
Length of Day
12h 20m
Waning Gibbous, 53% of the Moon is Illuminated
Mar 23
Waning Gibbous
Mar 23
Last Quarter
Mar 30
New
Apr 7
First Quarter
Apr 15
Full

Hourly Weather History & Observations

Time (PDT) Temp. Windchill Dew Point Humidity Pressure Visibility Wind Dir Wind Speed Gust Speed Precip Events Conditions
12:15 AM 46.4 °F 44.3 °F 32.0 °F 57% 30.26 in 10.0 mi West 4.6 mph - N/A   Unknown
12:35 AM 46.4 °F 45.2 °F 33.8 °F 62% 30.26 in 10.0 mi WNW 3.5 mph - N/A   Unknown
12:55 AM 44.6 °F 43.1 °F 35.6 °F 71% 30.26 in 10.0 mi WNW 3.5 mph - N/A   Unknown
1:15 AM 44.6 °F 43.1 °F 39.2 °F 81% 30.27 in 8.0 mi West 3.5 mph - N/A   Unknown
1:35 AM 44.6 °F - 37.4 °F 76% 30.27 in 10.0 mi Calm Calm - N/A   Unknown
1:55 AM 44.6 °F - 37.4 °F 76% 30.27 in 10.0 mi Calm Calm - N/A   Unknown
2:15 AM 44.6 °F - 37.4 °F 76% 30.28 in 8.0 mi Calm Calm - N/A Rain Light Rain
2:35 AM 42.8 °F - 39.2 °F 87% 30.28 in 10.0 mi Calm Calm - N/A   Unknown
2:55 AM 42.8 °F - 39.2 °F 87% 30.27 in 10.0 mi Calm Calm - N/A   Unknown
3:15 AM 42.8 °F - 39.2 °F 87% 30.28 in 10.0 mi Calm Calm - N/A   Unknown
3:35 AM 41.0 °F - 39.2 °F 93% 30.27 in 10.0 mi Calm Calm - N/A   Unknown
3:55 AM 41.0 °F - 39.2 °F 93% 30.27 in 10.0 mi Calm Calm - N/A   Unknown
4:15 AM 41.0 °F - 39.2 °F 93% 30.27 in 10.0 mi Calm Calm - N/A   Unknown
4:35 AM 41.0 °F - 39.2 °F 93% 30.27 in 10.0 mi Calm Calm - N/A   Unknown
4:55 AM 39.2 °F - 39.2 °F 100% 30.27 in 10.0 mi Calm Calm - N/A   Unknown
5:15 AM 39.2 °F - 39.2 °F 100% 30.27 in 10.0 mi Calm Calm - N/A   Unknown
5:35 AM 39.2 °F - 39.2 °F 100% 30.28 in 10.0 mi Calm Calm - N/A   Unknown
5:55 AM 39.2 °F - 39.2 °F 100% 30.28 in 10.0 mi Calm Calm - N/A   Unknown
6:15 AM 39.2 °F - 37.4 °F 93% 30.29 in 10.0 mi Calm Calm - N/A   Unknown
6:35 AM 39.2 °F - 39.2 °F 100% 30.29 in 10.0 mi Calm Calm - N/A   Unknown
6:55 AM 37.4 °F - 37.4 °F 100% 30.29 in 10.0 mi Calm Calm - N/A   Unknown
7:15 AM 37.4 °F - 37.4 °F 100% 30.30 in 10.0 mi Calm Calm - N/A   Unknown
7:35 AM 37.4 °F - 37.4 °F 100% 30.30 in 10.0 mi Calm Calm - N/A   Unknown
7:55 AM 37.4 °F - 37.4 °F 100% 30.31 in 10.0 mi Calm Calm - N/A   Unknown
8:15 AM 39.2 °F - 37.4 °F 93% 30.31 in 10.0 mi Calm Calm - N/A   Unknown
8:35 AM 39.2 °F - 37.4 °F 93% 30.32 in 10.0 mi Calm Calm - N/A   Unknown
8:55 AM 41.0 °F - 37.4 °F 87% 30.32 in 10.0 mi Calm Calm - N/A   Unknown
9:15 AM 41.0 °F - 37.4 °F 87% 30.32 in 10.0 mi Calm Calm - N/A   Unknown
9:35 AM 41.0 °F 38.0 °F 37.4 °F 87% 30.32 in 10.0 mi NNE 4.6 mph - N/A   Unknown
9:55 AM 42.8 °F - 37.4 °F 81% 30.33 in 10.0 mi Calm Calm - N/A   Unknown
10:15 AM 42.8 °F - 37.4 °F 81% 30.33 in 10.0 mi Calm Calm - N/A   Unknown
10:35 AM 44.6 °F - 35.6 °F 71% 30.33 in 10.0 mi Calm Calm - N/A   Unknown
10:55 AM 46.4 °F 43.5 °F 35.6 °F 66% 30.33 in 10.0 mi East 5.8 mph - N/A   Unknown
11:15 AM 46.4 °F 45.2 °F 35.6 °F 66% 30.33 in 10.0 mi NE 3.5 mph - N/A   Unknown
11:35 AM 46.4 °F 45.2 °F 35.6 °F 66% 30.33 in 10.0 mi NE 3.5 mph - N/A   Unknown
11:55 AM 48.2 °F - 37.4 °F 66% 30.34 in 10.0 mi SW 3.5 mph - N/A   Unknown
12:15 PM 48.2 °F - 37.4 °F 66% 30.33 in 10.0 mi Calm Calm - N/A   Unknown
12:35 PM 50.0 °F - 37.4 °F 62% 30.33 in 10.0 mi NNE 5.8 mph - N/A   Unknown
12:55 PM 50.0 °F - 35.6 °F 58% 30.32 in 10.0 mi NW 4.6 mph - N/A   Unknown
1:15 PM 50.0 °F - 35.6 °F 58% 30.32 in 10.0 mi Calm Calm - N/A   Unknown
1:35 PM 53.6 °F - 35.6 °F 51% 30.31 in 10.0 mi Calm Calm - N/A   Unknown
1:55 PM 53.6 °F - 37.4 °F 54% 30.31 in 10.0 mi North 4.6 mph - N/A   Unknown
2:15 PM 53.6 °F - 37.4 °F 54% 30.30 in 10.0 mi North 5.8 mph - N/A   Unknown
2:35 PM 53.6 °F - 35.6 °F 51% 30.30 in 10.0 mi Calm Calm - N/A   Unknown
2:55 PM 53.6 °F - 35.6 °F 51% 30.30 in 10.0 mi WNW 3.5 mph - N/A   Unknown
3:15 PM 53.6 °F - 37.4 °F 54% 30.30 in 10.0 mi WNW 4.6 mph - N/A   Unknown
3:35 PM 53.6 °F - 35.6 °F 51% 30.29 in 10.0 mi Calm Calm - N/A   Unknown
3:55 PM 53.6 °F - 35.6 °F 51% 30.29 in 10.0 mi NNW 3.5 mph - N/A   Unknown
4:15 PM 53.6 °F - 35.6 °F 51% 30.28 in 10.0 mi NNW 3.5 mph - N/A   Unknown
4:35 PM 53.6 °F - 35.6 °F 51% 30.28 in 10.0 mi Calm Calm - N/A   Unknown
4:55 PM 53.6 °F - 35.6 °F 51% 30.28 in 10.0 mi NNE 3.5 mph - N/A   Unknown
5:15 PM 53.6 °F - 35.6 °F 51% 30.27 in 10.0 mi North 4.6 mph - N/A   Unknown
5:35 PM 53.6 °F - 35.6 °F 51% 30.27 in 10.0 mi North 3.5 mph - N/A   Unknown
5:55 PM 53.6 °F - 35.6 °F 51% 30.27 in 10.0 mi NNW 5.8 mph - N/A   Unknown
6:15 PM 53.6 °F - 35.6 °F 51% 30.26 in 10.0 mi NNW 5.8 mph - N/A   Unknown
6:35 PM 51.8 °F - 35.6 °F 54% 30.26 in 10.0 mi North 3.5 mph - N/A   Unknown
6:55 PM 50.0 °F - 35.6 °F 58% 30.26 in 10.0 mi NNW 3.5 mph - N/A   Unknown
7:15 PM 50.0 °F - 35.6 °F 58% 30.26 in 10.0 mi North 4.6 mph - N/A   Unknown
7:35 PM 46.4 °F - 35.6 °F 66% 30.25 in 10.0 mi Calm Calm - N/A   Unknown
7:55 PM 44.6 °F - 35.6 °F 71% 30.26 in 10.0 mi Calm Calm - N/A   Unknown
8:15 PM 44.6 °F - 35.6 °F 71% 30.26 in 10.0 mi Calm Calm - N/A   Unknown
8:35 PM 42.8 °F - 35.6 °F 76% 30.26 in 10.0 mi Calm Calm - N/A   Unknown
8:55 PM 41.0 °F - 35.6 °F 81% 30.27 in 10.0 mi Calm Calm - N/A   Unknown
9:15 PM 41.0 °F - 35.6 °F 81% 30.27 in 10.0 mi Calm Calm - N/A   Unknown
9:35 PM 41.0 °F - 35.6 °F 81% 30.27 in 10.0 mi Calm Calm - N/A   Unknown
9:55 PM 39.2 °F - 35.6 °F 87% 30.26 in 10.0 mi Calm Calm - N/A   Unknown
10:15 PM 37.4 °F - 35.6 °F 93% 30.26 in 10.0 mi Calm Calm - N/A   Unknown
10:35 PM 35.6 °F - 35.6 °F 100% 30.26 in 10.0 mi Calm Calm - N/A   Unknown
10:55 PM 35.6 °F - 35.6 °F 100% 30.26 in 10.0 mi Calm Calm - N/A   Unknown
11:15 PM 35.6 °F - 35.6 °F 100% 30.26 in 10.0 mi Calm Calm - N/A   Unknown
11:35 PM 37.4 °F - 35.6 °F 93% 30.25 in 10.0 mi Calm Calm - N/A   Unknown
11:55 PM 37.4 °F - 37.4 °F 100% 30.25 in 10.0 mi Calm Calm - N/A   Unknown